Location: Unspecified
(0.0000°N, 0.0000°E)
Time: 00:34:31
(UTC+00:00)

COSMOS 2251 DEB - Visible Passes

Search period start: 07 December 2021 00:00
Search period end: 17 December 2021 00:00
Orbit: 710 x 878 km, 74.0° (Epoch: 06 December)

Date Brightness Start Highest point End Pass type
(mag) Time Alt. Az. Time Alt. Az. Time Alt. Az.
07 Dec ? 19:01:05 10° N 19:06:37 73° ENE 19:11:53 10° SSE visible
08 Dec ? 18:32:13 10° N 18:37:26 44° ENE 18:42:28 10° SSE visible
08 Dec ? 20:18:36 10° W 20:19:42 11° WSW 20:20:47 10° WSW visible
09 Dec ? 19:46:55 10° WNW 19:50:34 18° WSW 19:54:07 10° SW visible
10 Dec ? 19:16:44 10° NW 19:21:25 30° WSW 19:25:57 10° SSW visible
11 Dec ? 18:47:03 10° NNW 18:52:18 48° WSW 18:57:20 10° S visible
12 Dec ? 18:17:42 10° NNW 18:23:09 81° WSW 18:28:22 10° S visible
13 Dec ? 05:13:04 10° SE 05:16:47 19° ESE 05:20:35 10° ENE visible
14 Dec ? 04:46:02 10° ESE 04:47:39 11° ESE 04:49:16 10° E visible
14 Dec ? 19:04:54 10° WNW 19:07:05 12° WSW 19:09:13 10° SW visible
15 Dec ? 18:34:00 10° NW 18:37:56 21° WSW 18:41:47 10° SSW visible
16 Dec ? 05:26:15 10° S 05:31:35 72° ESE 05:37:08 10° NNE visible
